Wind_Speed
5 4 3 4 4 5 3 3 3 2 4 8 12 11 10 13 3 6 15 21 22 23 24 23 25 26 27 26 25 23 22 20 19 18 17 17 17 17 15 15 16 14 14 15 15 15 16 16 15
6 3 4 4 5 4 2 5 8 5 14 15 21 16 11 6 10 20 24 22 23 25 26 24 27 28 26 24 22 20 19 19 18 16 16 16 15 13 14 15 15 15 15 16 16 17 19 19 18
6 4 3 3 3 3 4 2 8 15 14 5 5 10 5 6 16 15 24 27 28 29 25 24 26 26 23 20 18 18 17 18 17 15 15 15 13 12 13 15 16 16 16 16 17 20 19 17 15
3 2 3 4 3 2 5 7 13 9 7 10 14 7 8 3 10 18 26 27 28 27 25 24 24 24 21 19 18 18 18 17 15 14 14 12 11 11 13 13 14 15 15 15 17 17 15 15 12
5 2 4 3 2 3 3 8 5 10 8 10 6 5 5 6 16 26 26 27 29 28 26 27 24 23 21 19 18 17 17 16 14 13 12 11 11 11 12 12 13 15 15 14 13 14 13 11 8
2 3 4 1 3 5 4 11 22 23 22 19 14 10 7 15 23 25 26 28 28 28 27 26 23 21 20 21 20 18 18 15 14 13 12 11 12 11 11 12 13 12 12 12 10 11 10 7 6
3 4 2 2 3 3 4 4 11 11 13 9 12 5 15 20 20 23 25 26 28 27 29 26 24 25 22 20 18 17 18 17 16 16 15 13 12 11 11 10 10 9 9 8 8 9 9 8 5
5 3 3 1 3 3 9 5 10 7 8 19 10 5 9 23 21 23 26 28 27 30 27 24 26 25 23 20 17 16 17 17 18 17 16 14 13 12 10 9 7 7 7 6 6 8 8 8 5
4 4 2 4 5 4 18 6 7 7 14 5 2 20 19 24 24 25 27 28 29 27 25 25 26 25 22 20 18 16 16 14 14 14 14 13 11 11 9 8 7 5 5 4 4 5 5 5 4
4 3 7 7 7 9 11 5 9 6 12 10 20 21 24 22 25 26 30 29 28 28 25 27 26 24 21 17 16 13 15 11 11 11 10 10 9 8 7 6 6 7 7 5 2 3 5 3 4
7 6 6 10 11 23 13 11 7 17 4 10 28 26 25 23 24 24 26 26 28 27 25 27 25 22 18 15 11 10 11 8 8 6 8 6 5 4 5 4 4 4 3 3 2 2 4 5 7
5 9 19 16 20 18 8 18 12 3 7 23 24 26 25 23 25 27 27 28 28 27 25 25 27 21 17 14 11 9 8 5 5 4 5 5 5 4 2 2 1 1 1 1 2 4 7 9 11
2 6 14 26 20 21 23 13 8 12 20 22 20 22 23 24 23 23 25 26 27 27 26 24 26 21 17 13 10 6 4 3 4 2 2 3 4 5 5 5 5 4 4 5 5 8 9 11 13
3 11 19 22 21 21 15 18 6 13 23 21 20 20 21 21 22 22 23 26 26 28 28 26 24 23 20 16 9 4 2 1 3 1 0 3 5 5 6 8 9 8 7 7 7 9 9 11 13
26 15 9 10 13 8 28 2 6 26 25 23 20 20 19 19 20 20 19 22 22 24 28 30 26 25 22 17 13 5 3 4 3 3 3 7 10 9 9 8 8 7 5 5 9 11 12 13 15
8 6 6 6 11 15 2 3 10 27 25 22 21 21 19 21 19 18 18 16 18 21 26 32 30 27 24 21 16 11 6 8 6 7 7 8 12 11 8 3 2 3 6 9 9 15 14 13 15
6 7 3 6 20 6 2 4 16 27 25 21 23 23 22 22 21 21 20 17 17 16 22 30 30 26 23 20 17 15 12 12 10 13 13 11 13 12 13 8 6 5 8 8 12 16 12 12 14
5 3 1 10 16 6 6 5 18 29 26 25 24 25 27 26 27 24 22 19 17 17 18 24 27 26 24 20 19 18 16 14 15 14 13 12 14 15 13 12 9 9 9 7 11 14 15 18 14
1 4 7 13 7 6 7 7 19 30 24 23 27 28 30 34 27 27 25 23 21 21 21 22 24 24 23 23 24 19 17 14 13 12 15 14 16 17 18 17 14 9 8 12 15 11 12 10 12
4 4 11 6 9 7 6 4 17 25 31 31 32 31 34 35 33 32 30 28 27 25 24 23 22 22 21 20 22 19 14 14 15 15 13 14 15 18 17 14 13 14 12 12 10 7 8 10 11
2 5 11 8 6 5 9 3 8 11 15 21 29 34 33 36 36 37 36 35 31 31 29 27 24 25 22 19 16 16 15 16 17 14 11 12 18 17 7 9 9 7 10 11 9 7 10 13 11
5 7 12 14 15 7 3 4 7 11 15 18 24 30 37 38 38 37 40 40 37 35 32 28 26 23 22 20 20 19 17 18 16 18 18 16 11 11 10 9 9 7 9 9 8 10 13 17 19
10 4 4 10 7 7 3 3 7 11 15 20 26 33 37 43 42 42 43 41 35 34 33 30 27 22 20 18 19 20 21 18 16 18 18 16 14 12 10 11 11 12 13 14 14 15 18 19 22
5 1 7 6 5 1 9 7 4 12 27 25 26 31 39 42 45 44 43 42 41 37 34 30 28 25 19 18 19 23 22 21 22 19 18 17 18 15 16 15 16 15 19 24 23 21 23 23 23
5 5 3 3 4 5 4 3 12 19 22 24 30 37 40 42 44 47 47 47 45 39 36 34 30 30 26 20 21 17 21 22 22 21 17 18 18 19 18 15 15 18 23 25 25 24 23 24 24
5 7 6 5 4 5 5 5 7 9 28 37 38 45 37 38 45 47 48 48 42 41 39 35 34 30 29 26 24 23 17 20 23 23 21 21 21 23 24 21 20 30 29 25 26 25 26 28 28
4 2 4 8 2 3 4 7 7 7 2 15 24 26 33 39 44 48 47 40 39 40 41 35 31 27 28 37 31 27 22 22 21 24 24 25 28 26 27 23 24 29 26 28 27 32 31 32 33
6 7 3 3 2 4 5 4 6 3 4 7 11 24 34 37 34 37 35 35 34 35 36 35 32 29 29 29 31 28 26 25 27 25 28 24 32 33 27 29 29 29 28 30 28 31 33 34 33
1 2 7 6 5 6 1 6 6 2 5 10 12 30 34 35 34 31 34 29 29 29 30 29 30 40 30 30 31 30 32 30 26 27 35 27 29 29 29 35 37 34 34 32 31 32 33 32 35
2 5 7 5 4 1 4 5 3 5 3 15 14 12 20 26 29 29 27 23 27 28 27 27 26 29 30 28 25 24 23 29 31 34 31 36 30 34 31 35 38 40 34 32 30 31 36 37 38
Wind_Direction
81 46 25 48 58 59 16 347 116 160 53 56 83 95 84 42 51 127 123 138 137 133 133 129 128 126 121 119 119 120 123 125 124 124 123 126 130 130 125 121 120 117 118 121 120 119 115 117 120
79 95 75 65 77 74 5 320 84 94 133 110 78 79 57 64 89 128 134 144 138 133 129 135 132 129 125 121 118 122 126 126 125 124 122 123 122 122 123 125 123 121 123 121 120 120 116 116 117
59 49 38 74 103 143 149 191 122 144 155 124 97 51 59 99 108 128 147 144 140 134 137 139 138 136 131 126 123 124 125 128 127 120 119 122 123 121 121 120 115 119 123 122 126 124 122 121 122
116 84 52 68 79 36 156 147 124 115 76 82 108 73 87 150 145 150 146 147 143 138 141 141 141 141 134 128 124 123 122 121 121 118 118 117 115 117 123 119 115 114 119 122 131 133 130 127 121
157 67 47 75 37 56 108 168 117 107 82 86 86 99 70 120 154 149 151 150 149 147 144 142 141 141 135 129 120 117 118 116 112 112 114 112 111 114 118 117 111 109 111 120 134 147 144 140 127
112 93 51 294 114 97 42 105 98 98 102 99 92 98 85 142 146 155 157 155 153 148 144 142 142 136 129 123 119 115 112 112 115 114 113 106 101 108 112 116 113 107 109 115 129 149 160 162 146
120 70 122 314 99 86 118 94 118 118 106 82 127 92 132 149 153 157 159 161 157 153 145 144 144 139 132 130 123 120 119 113 108 101 98 96 97 99 107 111 111 105 106 115 123 144 168 175 176
46 90 88 359 205 121 157 119 124 90 73 127 116 142 143 163 161 162 166 164 163 155 151 150 146 141 135 125 119 115 114 111 105 99 93 91 91 93 100 107 113 119 118 118 129 140 153 176 186
246 71 176 146 198 165 152 139 72 98 130 42 162 148 155 160 164 168 169 169 168 164 155 153 151 144 137 130 123 122 120 114 108 100 97 92 89 87 81 95 101 103 110 117 133 147 156 159 175
107 121 216 189 152 138 133 124 115 113 114 99 109 136 149 157 168 169 168 171 172 165 159 159 159 152 148 141 124 129 124 122 114 107 105 104 101 99 94 90 94 93 89 89 129 173 186 227 278
182 194 177 154 151 128 133 100 119 120 107 150 142 146 156 162 171 173 178 180 174 170 171 168 167 164 162 142 122 132 129 124 105 114 113 108 87 83 89 105 85 79 62 89 159 226 258 257 279
160 228 155 145 148 135 114 122 134 110 167 158 150 155 160 168 176 179 183 183 180 180 180 178 178 179 172 151 139 139 131 126 113 103 97 78 54 43 51 35 355 345 334 291 303 285 271 274 275
143 178 149 144 144 128 129 134 120 109 143 148 153 162 163 169 176 184 184 187 188 188 186 185 184 189 184 169 151 144 134 143 132 124 74 34 23 13 342 322 322 313 318 317 311 312 298 286 289
79 120 127 131 131 136 122 130 107 152 153 152 162 170 170 174 180 184 189 192 195 195 193 189 188 196 196 188 184 162 184 210 188 164 126 307 335 343 9 325 307 313 318 338 327 303 290 285 284
117 107 63 126 141 116 125 113 148 161 164 165 172 175 178 178 184 193 192 195 196 197 196 196 191 196 202 203 207 213 220 250 318 288 300 308 307 299 330 343 331 330 316 294 291 303 285 281 280
90 22 118 236 164 159 123 223 163 171 168 177 182 188 190 187 184 184 177 184 192 193 195 192 195 199 203 205 211 220 229 253 278 283 292 294 305 278 280 319 343 203 245 261 296 303 295 298 298
357 164 162 189 207 156 209 170 176 179 178 183 190 195 197 193 195 189 180 172 175 178 187 193 199 203 207 211 224 236 251 251 267 271 276 286 303 306 298 289 287 282 275 305 280 302 316 337 310
147 128 266 197 200 171 171 206 162 183 184 190 196 197 201 199 196 190 187 184 179 174 177 186 195 201 209 223 232 238 245 255 266 262 276 288 296 304 317 292 303 285 287 307 295 296 298 312 331
295 181 185 212 224 154 184 167 174 185 192 189 198 199 203 206 192 194 193 189 186 183 183 186 193 194 199 214 222 227 245 261 253 275 293 296 301 306 304 308 282 293 264 309 281 300 312 322 322
242 294 281 278 184 128 149 219 181 186 195 195 197 202 206 210 207 201 199 200 198 192 193 195 195 197 198 202 214 233 245 252 256 262 284 299 309 312 302 306 275 270 249 265 277 291 309 327 325
265 213 269 203 134 56 115 13 197 216 219 207 206 207 209 210 213 210 206 205 204 204 204 202 198 200 203 207 216 229 237 247 256 261 280 307 311 320 295 305 302 264 249 254 275 303 309 310 322
282 211 242 152 153 181 145 233 215 206 218 219 209 206 210 213 217 218 215 212 211 209 209 211 211 211 215 220 221 227 243 258 271 281 287 294 299 318 306 306 300 253 258 264 280 285 293 295 310
231 317 189 160 122 100 234 99 277 166 217 223 212 207 212 218 219 219 220 219 218 215 216 217 218 223 228 237 243 252 258 261 272 278 287 293 296 289 293 288 270 269 276 281 285 294 295 295 299
242 272 58 49 92 133 210 162 247 184 216 223 215 211 212 214 218 224 225 225 225 221 219 220 225 228 232 242 252 261 269 276 278 278 286 290 295 280 279 279 273 280 288 289 287 290 290 294 294
95 62 8 19 11 218 172 112 241 215 214 210 204 210 212 213 215 221 224 225 227 222 221 222 224 225 223 221 227 235 258 264 274 277 280 284 285 291 278 285 287 273 272 287 289 290 291 292 296
180 157 150 175 193 258 182 233 259 215 222 214 207 207 209 209 218 222 225 227 219 223 226 226 224 228 234 233 232 233 231 240 256 269 262 267 272 278 285 274 288 284 277 285 285 283 289 296 297
203 137 174 104 32 50 283 293 319 341 98 193 199 201 207 210 216 224 228 221 219 223 227 228 228 211 220 235 233 228 227 229 236 269 260 263 267 269 275 285 268 294 276 292 279 283 290 300 302
163 161 83 8 140 275 293 299 240 333 127 150 165 199 212 217 215 221 220 220 217 224 228 227 226 217 230 225 229 230 224 233 223 251 256 261 267 275 276 276 285 285 292 297 291 289 289 297 297
79 124 52 113 115 165 220 268 218 225 223 167 181 206 216 220 220 218 222 214 208 214 223 226 224 224 239 232 232 234 241 245 250 274 250 255 264 275 276 276 289 287 289 288 284 285 288 293 296
153 197 144 130 221 129 159 272 325 118 183 141 128 154 201 216 218 216 205 188 195 200 207 218 218 224 231 221 226 245 259 253 254 264 275 254 264 276 277 285 283 285 279 281 283 291 297 294 296
Height
1497 1499 1499 1498 1509 1511 1523 1516 1507 1510 1512 1511 1508 1507 1512 1515 1517 1530 1528 1531 1533 1533 1537 1538 1541 1543 1545 1547 1548 1550 1551 1552 1553 1555 1555 1557 1558 1558 1558 1559 1560 1562 1563 1563 1563 1564 1565 1566 1567
1498 1499 1500 1499 1520 1533 1530 1514 1513 1510 1513 1513 1511 1513 1514 1521 1521 1525 1530 1533 1535 1537 1540 1542 1544 1546 1549 1551 1552 1554 1555 1555 1557 1558 1559 1561 1561 1562 1562 1561 1562 1563 1564 1566 1567 1568 1569 1570 1570
1500 1501 1502 1504 1518 1533 1530 1515 1511 1513 1512 1510 1514 1516 1519 1525 1525 1528 1532 1534 1536 1538 1543 1545 1547 1550 1552 1554 1555 1556 1558 1558 1559 1561 1562 1563 1565 1565 1566 1566 1566 1567 1567 1568 1570 1572 1573 1573 1574
1502 1502 1504 1515 1519 1513 1513 1513 1513 1513 1513 1514 1516 1520 1524 1527 1528 1530 1534 1537 1539 1542 1545 1548 1549 1552 1554 1556 1558 1558 1560 1561 1562 1562 1565 1566 1567 1569 1569 1570 1570 1571 1572 1573 1573 1575 1576 1576 1576
1505 1503 1515 1520 1517 1514 1514 1514 1513 1514 1515 1516 1516 1524 1525 1529 1530 1533 1536 1540 1543 1545 1548 1549 1551 1555 1557 1558 1560 1562 1563 1564 1566 1566 1567 1568 1569 1571 1572 1574 1575 1575 1576 1576 1577 1577 1577 1578 1578
1505 1505 1526 1531 1518 1515 1517 1518 1514 1516 1519 1521 1522 1523 1529 1532 1533 1536 1540 1543 1546 1547 1550 1553 1556 1559 1561 1563 1564 1565 1565 1566 1568 1569 1570 1571 1572 1573 1575 1577 1578 1579 1579 1580 1580 1579 1580 1579 1580
1504 1510 1521 1521 1521 1518 1518 1519 1518 1518 1519 1522 1524 1526 1532 1535 1537 1539 1543 1546 1548 1551 1552 1555 1559 1561 1564 1566 1567 1568 1569 1570 1571 1573 1573 1574 1575 1575 1577 1579 1580 1582 1582 1582 1582 1582 1583 1582 1581
1504 1509 1517 1518 1522 1523 1518 1519 1520 1520 1523 1524 1525 1530 1532 1536 1539 1542 1545 1548 1552 1554 1557 1559 1561 1564 1567 1569 1570 1572 1573 1574 1575 1575 1576 1576 1577 1578 1579 1579 1581 1581 1582 1583 1583 1583 1583 1584 1584
1505 1519 1526 1523 1520 1516 1517 1519 1521 1523 1525 1525 1525 1528 1533 1537 1541 1545 1548 1551 1554 1557 1560 1563 1566 1568 1570 1571 1572 1574 1576 1577 1578 1578 1579 1580 1580 1581 1582 1582 1582 1583 1583 1584 1585 1585 1585 1584 1584
1508 1521 1516 1509 1509 1511 1518 1520 1521 1526 1528 1529 1529 1533 1536 1540 1544 1547 1550 1553 1556 1559 1563 1566 1569 1571 1572 1574 1574 1577 1577 1580 1580 1581 1581 1582 1582 1583 1583 1583 1583 1584 1584 1585 1585 1585 1585 1585 1585
1507 1512 1504 1506 1511 1513 1518 1522 1523 1527 1531 1530 1528 1533 1538 1542 1546 1550 1553 1556 1559 1563 1566 1569 1571 1573 1574 1576 1577 1578 1579 1581 1581 1582 1582 1583 1584 1584 1584 1585 1585 1585 1585 1585 1585 1586 1585 1585 1585
1505 1500 1497 1507 1513 1514 1517 1522 1526 1526 1528 1531 1534 1536 1540 1544 1547 1551 1554 1558 1561 1565 1568 1571 1573 1575 1577 1578 1579 1581 1582 1582 1582 1583 1584 1584 1584 1585 1586 1586 1587 1586 1585 1585 1586 1586 1585 1584 1584
1499 1498 1504 1507 1514 1515 1518 1525 1525 1530 1531 1535 1537 1540 1542 1546 1549 1553 1556 1560 1563 1565 1569 1572 1575 1577 1578 1580 1581 1583 1583 1583 1584 1585 1585 1585 1585 1585 1586 1586 1587 1586 1586 1585 1585 1584 1583 1582 1581
1496 1500 1508 1513 1517 1520 1520 1526 1527 1535 1534 1536 1538 1541 1543 1546 1549 1552 1555 1558 1561 1565 1568 1572 1575 1577 1579 1581 1582 1583 1585 1585 1584 1585 1585 1585 1586 1586 1586 1586 1587 1587 1586 1585 1583 1580 1578 1577 1577
1501 1512 1517 1520 1519 1521 1523 1531 1532 1532 1535 1538 1539 1542 1545 1547 1549 1551 1553 1556 1559 1563 1567 1570 1573 1576 1578 1580 1582 1583 1584 1584 1584 1583 1585 1585 1587 1588 1588 1587 1586 1585 1585 1582 1579 1576 1574 1574 1574
1511 1520 1535 1523 1523 1523 1522 1540 1532 1534 1536 1540 1541 1543 1545 1547 1548 1551 1553 1556 1559 1562 1564 1568 1571 1574 1576 1578 1580 1582 1583 1583 1584 1584 1584 1584 1584 1584 1585 1585 1583 1582 1581 1578 1575 1572 1572 1572 1572
1520 1536 1529 1528 1520 1522 1525 1535 1531 1535 1537 1540 1542 1543 1544 1547 1549 1551 1553 1556 1557 1560 1563 1567 1571 1574 1577 1579 1580 1581 1582 1582 1582 1581 1581 1582 1582 1583 1585 1583 1584 1581 1580 1581 1578 1573 1572 1572 1570
1528 1529 1525 1525 1517 1518 1527 1528 1527 1533 1535 1537 1541 1543 1544 1544 1545 1549 1552 1555 1558 1561 1565 1568 1570 1572 1575 1577 1578 1579 1578 1578 1579 1578 1578 1578 1579 1580 1581 1583 1582 1582 1582 1580 1573 1574 1572 1571 1568
1508 1516 1521 1513 1508 1520 1524 1525 1522 1530 1535 1536 1537 1538 1540 1540 1543 1547 1550 1554 1556 1558 1561 1562 1564 1567 1570 1572 1574 1576 1577 1577 1578 1577 1577 1578 1578 1579 1579 1578 1578 1578 1578 1575 1574 1571 1569 1568 1566
1512 1516 1513 1506 1500 1514 1523 1527 1524 1524 1523 1526 1529 1532 1535 1539 1542 1544 1547 1551 1552 1555 1556 1560 1563 1565 1568 1570 1573 1575 1577 1577 1575 1575 1575 1576 1577 1578 1577 1576 1575 1575 1575 1574 1573 1572 1570 1567 1567
1508 1514 1508 1512 1507 1512 1519 1535 1533 1527 1529 1529 1529 1530 1534 1536 1539 1541 1542 1545 1548 1551 1553 1556 1559 1562 1566 1570 1575 1575 1575 1575 1574 1574 1576 1577 1577 1576 1576 1576 1576 1576 1576 1575 1573 1572 1570 1568 1567
1515 1492 1494 1501 1508 1533 1515 1555 1535 1526 1526 1524 1525 1528 1528 1530 1534 1536 1538 1540 1540 1544 1546 1551 1557 1563 1568 1571 1571 1571 1574 1575 1575 1576 1576 1576 1576 1576 1576 1576 1577 1577 1576 1575 1574 1572 1571 1569 1567
1501 1485 1489 1490 1514 1522 1526 1542 1530 1521 1526 1517 1516 1519 1522 1524 1528 1530 1531 1534 1536 1541 1547 1553 1562 1567 1570 1572 1575 1576 1575 1574 1574 1575 1576 1576 1574 1573 1574 1574 1575 1577 1577 1577 1575 1571 1570 1569 1565
1483 1489 1497 1510 1521 1543 1522 1531 1530 1520 1504 1500 1509 1514 1515 1518 1521 1524 1527 1532 1534 1540 1549 1557 1562 1564 1566 1569 1572 1575 1575 1576 1575 1573 1575 1576 1574 1573 1572 1571 1572 1575 1576 1575 1572 1568 1567 1565 1561
1487 1505 1539 1537 1544 1544 1518 1529 1512 1492 1485 1485 1490 1500 1504 1510 1515 1518 1521 1525 1529 1541 1548 1551 1549 1550 1553 1554 1553 1557 1565 1566 1570 1570 1570 1571 1571 1569 1567 1568 1568 1567 1566 1567 1567 1565 1563 1562 1558
1489 1497 1534 1542 1554 1536 1523 1523 1498 1478 1475 1475 1481 1487 1496 1504 1507 1512 1515 1517 1532 1537 1540 1542 1543 1554 1560 1557 1554 1555 1555 1560 1563 1564 1563 1564 1565 1564 1564 1563 1561 1562 1562 1562 1561 1560 1559 1557 1554
1487 1500 1492 1527 1534 1537 1525 1502 1481 1474 1470 1475 1482 1491 1493 1496 1501 1505 1509 1520 1526 1532 1535 1540 1547 1549 1543 1551 1551 1553 1555 1554 1557 1564 1562 1561 1561 1560 1559 1559 1557 1558 1558 1557 1556 1555 1554 1551 1548
1475 1479 1507 1521 1532 1538 1530 1518 1512 1485 1479 1477 1482 1486 1487 1491 1498 1503 1510 1515 1522 1526 1531 1537 1541 1543 1544 1546 1547 1548 1550 1554 1554 1553 1558 1559 1556 1557 1554 1555 1553 1553 1552 1551 1549 1548 1548 1544 1541
1482 1489 1501 1508 1523 1541 1543 1526 1487 1481 1481 1477 1477 1480 1483 1488 1494 1500 1504 1512 1518 1522 1526 1531 1535 1537 1539 1542 1545 1546 1548 1550 1551 1547 1550 1551 1551 1551 1550 1549 1549 1546 1545 1545 1543 1541 1539 1536 1532
1467 1476 1484 1515 1521 1529 1529 1518 1479 1478 1479 1477 1479 1478 1481 1486 1491 1497 1503 1511 1515 1518 1522 1526 1529 1532 1537 1540 1542 1543 1545 1546 1545 1544 1545 1545 1545 1545 1545 1544 1542 1540 1538 1537 1535 1533 1531 1527 1522